Theta_e
318 319 322 321 321 320 319 321 323 325 330 336 339 334 323 322 330 332 328 328 331 331 328 326 326 323 318 315 313 312 311 310 309 309 307 306 306 306 305 304 303 303 303 304 304 304 305 306 309 314 318 321 322 322 322 322 322 322 323 323 323 323 323 322 322 322 322 323 323 322 322 320 319 319 319 318 318 318 318 317 317 316 315 315 315 315 314
318 318 322 321 320 321 319 317 318 320 325 328 329 327 322 323 329 329 327 329 329 327 327 325 323 318 314 312 310 309 309 308 307 307 305 304 304 304 304 303 303 302 302 302 302 302 303 303 305 309 312 314 315 316 318 319 321 322 323 322 322 322 322 321 321 321 322 322 322 322 322 320 319 319 318 318 319 319 319 319 318 317 317 317 315 315 314
320 317 321 321 319 321 322 319 317 318 322 324 325 325 324 326 329 327 326 328 326 321 320 321 318 313 311 310 309 308 307 306 305 305 304 304 303 303 303 302 301 301 301 301 301 301 301 302 303 304 305 306 307 307 309 311 313 316 318 318 318 318 319 320 321 320 320 320 320 320 321 320 319 318 318 319 320 320 320 320 319 319 319 317 315 315 315
321 317 320 321 320 322 324 322 318 315 318 321 322 322 322 325 328 327 327 328 323 316 315 316 314 311 309 309 307 306 305 304 304 305 304 302 302 302 302 302 301 301 301 301 301 301 301 301 302 302 303 303 303 303 304 304 305 307 308 308 308 309 311 314 316 317 318 319 319 319 320 321 320 319 320 321 321 320 320 321 321 320 320 319 318 317 317
320 317 319 321 322 324 324 319 313 311 313 316 318 319 319 321 324 326 327 325 318 314 314 314 312 309 308 307 305 305 304 304 304 303 302 302 302 302 302 302 302 302 302 302 302 301 301 301 301 301 302 302 302 302 302 302 302 302 302 302 302 303 304 306 307 308 310 312 313 314 316 318 318 318 318 320 321 321 321 320 320 320 321 321 321 320 319
320 317 317 319 321 322 319 314 310 310 312 315 317 317 315 316 318 319 320 317 313 311 311 311 309 307 305 304 303 303 303 303 303 303 302 303 303 303 303 303 303 302 301 301 301 301 302 302 302 302 302 301 301 301 301 301 301 301 300 301 301 301 301 301 302 303 304 304 305 305 307 309 311 311 311 313 316 317 317 318 319 320 320 321 321 322 322
320 317 318 321 322 319 315 313 311 310 310 312 314 313 311 312 314 314 314 312 309 308 307 305 305 304 303 302 302 302 302 302 302 303 302 302 302 302 302 303 303 302 301 301 301 301 301 302 302 302 302 302 302 301 300 300 300 300 300 300 300 300 300 300 300 301 301 302 302 302 302 303 304 304 304 305 307 307 309 311 313 315 316 317 319 320 321
318 319 320 321 319 315 313 313 312 311 311 311 314 316 312 311 312 312 310 308 307 306 305 304 303 303 303 302 302 302 301 301 302 302 302 302 301 301 301 301 301 301 301 301 301 302 302 302 303 302 303 303 303 302 301 301 300 300 300 300 300 300 300 299 299 299 300 300 300 300 301 302 302 302 302 302 303 303 304 305 306 307 308 310 311 312 315
317 319 318 317 316 315 314 313 311 311 311 310 312 316 313 309 310 310 307 306 305 305 305 304 304 304 304 303 303 302 301 300 300 300 301 301 301 301 300 300 300 300 301 301 302 302 302 302 302 302 302 302 302 302 301 301 300 300 300 300 300 299 299 299 300 299 299 299 299 299 300 300 300 300 300 300 301 302 303 303 304 304 305 304 304 305 307
317 320 318 317 320 319 315 313 311 310 311 309 308 312 313 310 308 307 306 306 305 305 305 305 306 308 308 305 304 302 301 300 300 299 299 299 299 300 300 300 301 300 300 301 301 301 301 301 301 300 301 301 301 301 300 300 300 300 299 299 299 299 299 299 299 299 299 299 299 299 299 299 299 299 299 299 300 300 300 301 301 302 302 303 303 303 303
318 320 320 319 320 317 312 311 309 307 309 309 308 313 316 310 306 305 306 305 305 305 306 306 307 311 310 306 303 301 299 300 300 301 300 299 299 300 300 300 300 300 300 301 301 301 301 301 300 300 300 300 300 300 300 300 299 299 299 299 299 299 299 299 299 299 299 299 299 299 299 299 299 299 299 299 299 299 299 299 300 300 300 301 301 301 302
317 317 317 315 315 313 309 307 307 306 306 308 312 318 316 308 305 305 305 305 305 304 305 306 308 309 308 305 302 300 298 299 300 300 300 299 299 300 300 300 300 300 300 300 300 301 301 301 300 300 300 300 300 299 299 299 299 299 299 299 299 299 299 299 299 299 299 299 298 298 298 298 298 298 299 299 299 299 299 299 299 299 299 299 300 300 300
314 315 315 314 312 311 308 305 305 305 307 311 316 318 312 306 305 305 303 304 305 304 306 308 307 305 304 303 302 301 300 300 299 298 299 299 299 300 300 300 300 300 300 300 300 300 301 301 300 300 300 299 299 299 299 299 299 298 299 298 299 298 298 298 298 298 298 298 298 298 298 298 298 298 298 298 298 298 298 298 298 299 299 299 299 299 300
313 313 313 313 312 308 304 303 304 305 311 316 315 310 306 306 306 305 304 305 304 304 306 307 304 302 301 302 302 302 301 300 298 297 298 298 299 299 300 300 301 301 300 300 300 300 300 300 300 300 299 299 299 298 298 298 298 298 299 298 298 298 298 297 298 297 297 297 297 297 297 297 297 297 297 297 297 297 297 298 298 298 298 298 298 298 299
312 313 312 313 313 308 303 304 307 308 310 311 308 304 304 306 305 304 304 304 303 303 304 304 304 303 301 300 301 301 300 299 298 297 298 298 298 299 300 300 301 301 300 300 300 300 300 300 300 299 299 298 298 298 298 298 298 298 298 298 298 297 297 297 297 297 297 297 297 296 296 296 296 296 296 296 296 296 296 296 297 297 297 297 297 298 298
311 314 311 309 309 306 303 304 307 307 305 304 305 304 304 303 303 302 302 302 302 302 303 304 305 303 301 300 299 300 300 299 298 297 298 298 298 298 299 300 300 300 300 299 299 300 299 299 299 299 299 298 298 297 297 297 298 297 297 297 297 297 297 296 296 296 296 296 295 295 295 295 295 295 295 295 295 295 295 295 295 296 296 296 296 296 297
306 309 308 306 305 303 302 303 303 303 302 302 302 302 301 301 301 301 301 301 301 302 301 302 303 301 300 300 299 300 301 300 298 297 298 298 298 298 298 300 300 299 299 299 299 299 299 299 299 299 299 298 297 297 297 297 297 297 297 297 296 296 296 296 296 295 295 295 295 294 295 295 295 295 295 295 295 294 294 294 294 294 295 295 295 295 295
304 306 305 304 304 303 302 303 303 303 303 302 301 301 301 301 301 300 300 301 301 301 300 300 300 300 299 300 300 300 300 299 297 297 298 298 298 298 298 299 299 299 299 299 299 299 298 299 299 298 298 298 297 297 297 297 297 297 296 296 296 296 295 295 295 295 295 295 295 294 295 295 295 295 295 295 295 294 294 293 293 293 294 294 295 295 295
305 307 305 303 304 303 302 302 302 302 302 302 301 302 301 302 302 301 301 300 300 300 300 299 299 299 299 300 300 299 299 298 296 297 297 297 297 298 298 299 299 299 299 299 299 299 298 298 298 298 298 298 297 297 297 297 296 296 296 295 295 295 295 295 295 295 295 295 295 294 295 295 295 294 294 294 294 294 294 293 293 293 293 294 294 294 294
306 306 304 302 303 303 302 302 302 302 302 302 301 302 302 303 304 302 301 301 301 301 299 299 299 299 298 299 299 298 298 297 295 296 296 297 297 298 298 298 299 299 299 299 298 298 298 298 298 298 298 297 297 297 296 296 296 296 295 294 295 295 295 295 295 294 294 295 295 295 295 295 294 294 294 294 294 294 294 294 293 293 293 293 294 294 294
304 303 302 303 304 303 302 302 302 301 301 301 301 301 301 302 303 303 301 300 300 300 299 299 300 301 298 296 296 296 296 294 294 295 296 296 297 298 297 298 299 298 299 298 298 298 298 298 298 298 297 297 297 296 296 296 296 295 295 294 295 295 295 295 295 294 294 294 295 294 294 294 293 293 293 293 293 294 294 294 293 293 293 293 293 293 293
306 305 304 304 306 305 302 302 302 301 301 301 301 300 300 299 300 301 300 298 296 297 297 296 298 299 296 294 294 294 293 293 293 295 296 296 297 298 298 298 298 298 298 298 297 298 298 297 298 298 297 297 297 296 296 296 295 295 295 295 295 295 295 295 295 294 293 294 294 294 293 293 293 294 294 294 294 293 293 293 293 293 293 292 292 292 292
308 307 305 303 306 306 303 302 302 301 301 302 301 300 299 299 298 298 298 298 297 296 295 294 295 295 294 293 293 292 292 294 295 296 297 297 297 297 297 298 298 298 298 297 297 298 298 297 298 297 297 297 297 296 296 296 296 296 295 295 295 296 296 295 294 293 294 294 294 293 294 294 294 294 294 294 294 294 294 294 294 293 293 293 293 292 292
306 305 304 303 304 305 303 303 303 300 299 301 303 302 300 298 297 296 296 297 297 296 295 294 294 294 294 294 294 294 294 295 296 296 296 297 297 297 297 297 297 297 297 297 297 297 297 297 297 297 297 297 297 296 296 296 296 296 296 296 296 296 296 295 294 294 294 294 294 294 294 294 294 294 294 294 295 294 294 294 294 294 294 294 294 293 293
305 304 302 301 302 304 302 300 300 298 296 298 301 301 298 296 295 295 295 294 294 295 294 293 294 295 295 295 295 295 295 295 296 296 296 296 296 296 296 296 296 296 297 297 297 297 297 297 297 297 297 297 297 297 297 296 296 296 296 296 296 296 296 294 293 294 294 294 294 294 294 294 295 295 295 295 294 294 295 295 295 295 294 294 294 294 294
303 301 300 300 300 301 300 299 299 298 296 297 298 297 296 295 295 295 295 294 294 294 294 293 294 295 296 296 295 295 295 295 295 295 296 296 296 296 296 296 295 296 296 297 297 297 297 297 297 297 297 297 297 297 297 296 296 295 295 295 296 296 295 293 293 294 294 294 294 295 295 295 295 295 295 295 294 294 294 295 295 295 295 295 295 295 294
300 300 301 300 299 299 299 300 300 298 296 296 297 296 295 296 296 295 295 295 295 296 296 295 295 295 295 295 295 295 295 295 295 295 295 295 295 295 296 295 295 295 295 296 297 296 296 297 297 297 297 297 297 297 297 297 296 295 295 295 295 295 294 293 294 294 294 294 295 296 296 296 296 295 295 295 295 294 294 293 293 294 294 294 295 294 294
300 300 301 302 301 300 299 299 297 296 295 296 296 295 295 295 294 294 295 295 294 294 295 295 295 295 295 295 295 295 294 295 295 294 295 295 295 295 295 295 295 295 294 295 296 296 296 296 296 297 297 297 297 297 297 297 296 295 294 295 295 295 294 294 294 295 295 296 296 296 295 296 295 295 295 295 294 294 294 293 293 293 293 294 294 294 294
303 303 304 303 300 298 298 297 296 296 296 296 295 295 295 295 296 298 297 295 293 292 293 294 295 295 295 295 295 294 294 294 294 294 294 294 294 294 294 294 294 294 294 294 295 295 296 296 296 296 297 297 297 297 297 297 296 295 295 295 295 294 294 294 294 295 295 295 295 295 295 295 295 295 295 295 294 294 294 293 293 293 294 295 295 295 295
301 302 303 301 297 296 298 299 299 299 298 295 295 295 294 295 299 300 297 293 292 292 293 293 294 294 295 295 295 295 294 294 294 294 294 294 294 293 293 293 293 293 294 294 294 295 295 295 295 296 297 297 297 297 297 297 296 296 295 295 295 294 294 294 295 295 295 295 295 295 295 295 295 296 295 295 294 294 294 294 294 294 295 295 295 294 294
299 299 301 300 297 297 300 300 299 300 298 295 295 296 295 296 300 302 298 292 291 292 293 293 293 294 294 294 295 295 294 294 294 294 294 294 293 293 293 293 293 293 293 293 293 293 294 295 295 296 297 297 297 297 297 297 296 296 296 295 295 294 294 294 295 295 295 294 294 295 295 295 295 295 295 294 294 294 295 295 295 295 294 294 294 294 293
299 298 299 301 300 300 300 299 299 299 298 296 296 298 296 296 299 301 298 293 292 292 293 293 293 294 294 294 294 294 294 294 294 293 293 293 293 293 293 293 292 293 292 291 291 292 294 294 296 296 296 296 296 296 296 297 296 296 296 296 295 294 294 294 294 295 295 294 294 294 295 295 295 295 295 294 294 294 295 295 295 294 294 294 294 294 293
300 299 299 301 302 301 299 299 299 299 298 297 296 295 293 292 293 295 294 293 292 292 292 293 294 294 295 294 294 294 293 292 291 291 290 291 291 292 292 292 292 292 291 291 290 291 292 294 296 297 296 296 296 296 296 296 297 296 296 295 295 294 294 294 294 294 294 294 294 294 295 295 294 294 294 294 294 294 295 295 295 294 294 294 294 294 294
300 300 300 301 301 300 299 298 299 300 299 297 294 293 292 292 292 292 293 293 292 292 293 294 294 294 294 294 294 293 292 290 288 288 289 290 291 292 292 291 290 290 290 289 289 290 292 294 296 297 296 296 296 295 296 296 297 296 296 295 294 294 294 293 293 294 294 294 294 294 294 294 294 294 294 294 294 294 294 295 295 294 294 294 294 294 294
296 297 297 297 297 298 298 297 298 300 301 300 297 294 293 293 292 292 293 293 293 294 295 295 294 294 294 293 293 292 290 289 288 288 289 291 291 291 291 289 288 287 287 288 288 289 292 295 296 296 296 296 295 295 295 296 296 296 296 295 294 294 293 293 293 293 293 293 293 294 294 294 294 294 293 293 294 294 294 294 294 294 294 294 293 294 295
295 295 294 295 296 297 297 297 296 296 296 297 296 294 293 293 293 293 293 294 295 295 295 294 294 293 293 293 292 291 290 289 289 288 289 289 289 289 288 287 286 286 286 287 288 291 293 295 296 296 296 295 295 295 296 296 296 296 295 294 294 293 293 293 292 293 293 293 293 293 293 294 294 293 293 293 294 294 294 294 293 293 293 293 294 294 295
295 295 295 295 296 296 296 296 295 295 294 295 295 295 295 294 294 294 294 294 295 295 295 294 294 293 293 293 292 291 290 289 289 289 289 288 288 288 287 287 287 287 286 287 290 293 295 295 296 295 295 295 295 295 296 296 296 296 295 295 294 293 293 292 292 292 292 292 292 292 293 293 293 293 293 293 293 293 293 293 293 293 293 293 293 293 294
296 296 296 296 296 296 296 296 295 295 296 296 296 296 296 295 295 294 294 294 295 295 294 294 294 293 293 293 292 291 291 289 288 288 288 288 288 288 288 288 288 287 286 288 291 293 294 295 295 294 294 295 295 295 296 296 296 296 295 295 293 293 292 292 291 291 291 291 291 292 292 293 292 292 292 293 293 293 293 293 293 293 293 293 293 293 292
296 296 297 296 296 296 296 296 296 295 296 296 296 296 296 295 295 295 294 295 295 295 294 294 293 293 293 293 292 292 292 291 289 288 288 288 288 288 288 288 288 287 287 288 290 291 292 293 294 294 295 296 296 296 296 296 296 296 295 295 294 293 292 291 291 291 291 291 291 292 292 292 292 292 292 292 293 293 292 292 292 292 292 293 293 292 292
296 297 297 297 297 296 296 296 296 296 295 295 295 295 295 295 295 295 295 295 295 294 294 294 293 293 293 293 292 292 293 292 291 290 289 288 288 288 288 288 288 287 287 288 291 291 291 292 293 294 294 295 295 295 295 295 295 296 295 295 294 293 292 291 291 291 290 291 291 292 292 292 292 292 292 292 292 292 292 291 292 292 292 292 292 292 292
296 297 296 296 296 296 297 297 297 296 296 295 295 295 295 295 295 295 295 295 295 294 294 294 293 293 294 294 293 293 293 293 292 292 291 290 290 289 289 289 289 289 289 289 291 291 291 292 292 293 294 294 293 293 294 294 294 295 295 295 294 293 293 292 291 291 290 291 291 291 292 292 292 292 292 292 292 292 291 291 292 292 292 292 292 292 292
297 296 296 296 296 296 296 296 296 296 296 296 295 295 295 295 295 295 295 295 295 295 294 294 294 294 294 294 293 293 293 293 293 293 293 292 292 291 290 289 290 292 292 291 290 291 292 292 291 291 292 293 293 293 294 294 294 294 295 295 295 294 293 292 291 291 291 291 291 291 291 291 291 291 292 292 291 291 291 291 291 292 292 292 292 291 291
297 296 296 296 296 296 296 297 296 296 296 296 296 296 295 295 295 295 295 294 294 294 294 294 294 294 294 294 294 293 293 292 292 292 292 293 293 292 291 291 291 292 293 293 292 292 292 291 290 290 292 293 292 292 293 294 294 294 295 295 295 294 293 292 291 291 291 291 291 291 291 291 291 291 291 291 291 291 291 291 291 291 291 292 292 291 291
296 297 297 297 296 296 296 296 296 296 296 296 296 296 296 296 296 296 295 295 295 294 294 295 294 295 294 294 294 293 292 291 291 291 291 291 292 292 292 291 291 292 293 293 293 292 291 289 289 290 292 293 292 292 293 294 294 294 295 295 295 294 293 292 292 291 291 291 291 291 291 291 291 291 291 291 291 291 291 291 291 291 291 291 292 292 292
296 297 297 296 296 296 296 296 296 296 296 296 297 296 296 296 296 296 296 296 296 295 295 295 295 295 295 294 294 293 292 291 291 291 291 291 291 291 291 292 291 292 292 292 292 291 289 288 289 292 293 293 292 292 293 294 294 294 295 295 295 295 294 293 292 292 291 291 291 291 291 291 291 291 291 291 291 291 291 291 291 291 291 291 291 292 292
297 297 297 296 296 296 296 296 296 296 296 296 296 296 296 296 296 296 296 296 296 296 296 296 295 295 295 295 294 293 292 292 292 292 291 291 291 291 291 291 291 292 292 292 291 289 287 288 290 292 293 292 292 292 293 294 294 294 295 295 295 295 294 293 293 292 292 291 291 291 291 291 291 291 291 291 291 291 291 291 291 291 291 291 291 292 292
297 296 296 296 296 297 297 297 296 296 296 296 296 296 296 297 296 296 296 296 296 296 296 296 296 296 296 295 294 293 293 293 292 292 292 292 291 291 291 291 291 291 291 291 290 288 287 288 291 292 292 291 291 292 293 294 294 295 295 295 295 295 294 293 293 292 292 292 292 292 291 291 291 291 291 291 291 291 291 291 291 291 291 291 291 291 291
297 297 297 297 297 296 296 296 296 296 296 296 296 296 296 297 296 296 296 296 296 296 296 296 296 296 296 296 295 294 293 293 293 292 292 292 291 291 291 291 290 290 290 290 290 288 287 289 290 290 289 289 290 292 293 294 294 295 295 295 295 295 294 294 293 293 292 292 292 291 291 291 291 291 290 290 290 290 291 291 291 291 291 291 291 291 290
297 297 297 297 297 297 296 296 295 296 296 296 296 297 297 297 296 296 296 296 296 296 296 296 296 296 296 296 296 295 294 294 293 293 293 292 291 291 291 291 290 289 289 289 288 287 287 287 288 287 287 288 291 293 293 292 293 293 294 295 295 295 294 294 293 293 292 292 292 291 291 291 291 291 290 290 290 290 290 290 290 290 291 291 291 290 290
297 297 297 297 297 297 296 296 295 296 296 296 296 297 297 296 296 296 296 296 296 296 295 295 296 296 296 296 296 296 295 294 294 293 293 292 291 291 291 290 290 290 289 287 286 286 286 286 286 286 288 290 292 292 292 292 292 291 291 292 293 294 294 294 293 293 292 292 292 291 291 291 291 291 290 290 290 289 289 289 290 290 290 290 290 290 290
297 297 297 297 297 297 297 296 296 296 296 296 296 296 296 296 296 296 296 296 296 296 296 296 295 295 296 296 296 296 295 295 294 293 292 292 291 291 290 290 290 290 288 287 286 287 287 287 287 288 290 291 291 291 291 291 291 290 289 290 291 293 294 294 293 293 292 292 292 291 291 291 290 290 290 290 289 289 289 289 289 289 290 290 290 290 289
296 296 296 296 296 297 296 296 296 296 296 296 296 296 296 296 296 296 296 296 296 296 296 296 295 295 296 295 295 296 296 295 294 293 292 291 291 291 291 291 291 290 289 287 287 288 288 288 288 290 291 291 291 291 291 290 290 289 289 289 290 291 293 293 293 293 292 292 292 291 291 291 290 290 289 289 289 289 289 289 289 289 289 289 289 289 289
Wind_Speed
7 7 5 4 5 4 5 6 7 6 6 7 7 2 2 4 4 4 4 4 5 5 8 9 8 8 8 9 8 7 7 8 8 11 12 10 9 10 10 9 9 9 9 8 12 16 19 21 21 21 22 21 20 18 15 14 13 13 15 15 14 14 14 15 16 16 15 14 15 15 14 14 13 11 10 10 8 7 8 9 10 9 9 9 11 12 13
7 9 7 5 7 5 5 7 7 7 6 6 6 2 3 5 3 3 6 8 4 4 6 7 8 9 9 8 7 6 7 8 9 11 11 10 10 10 9 8 8 9 9 10 13 18 21 23 22 21 22 22 22 21 19 18 17 16 17 19 18 17 17 16 14 14 13 13 14 14 13 11 9 8 8 7 5 3 2 4 7 8 8 9 11 12 12
5 7 6 5 6 5 5 7 9 10 8 5 5 3 3 4 4 4 7 8 4 4 5 8 10 10 9 9 7 7 6 6 9 10 10 10 11 10 9 8 8 9 10 11 15 18 20 22 24 23 22 23 25 25 23 23 22 23 24 25 24 22 20 17 15 15 14 13 13 12 11 11 10 9 8 5 4 3 1 1 2 3 4 7 10 10 9
2 5 4 4 4 4 6 7 10 11 7 3 2 2 2 1 5 8 6 4 2 2 5 9 10 10 12 10 7 6 5 4 7 10 10 9 9 9 9 8 8 9 10 11 14 17 20 22 25 24 23 25 27 26 25 25 27 30 31 31 30 28 25 23 22 20 19 17 15 14 12 10 9 7 4 3 3 4 3 1 1 2 3 3 6 8 9
1 3 3 3 3 3 2 4 7 7 5 3 3 3 5 4 3 7 4 3 3 3 6 9 9 10 11 9 6 5 5 4 6 9 9 8 6 7 8 8 7 9 11 13 16 19 21 23 25 25 25 28 27 25 25 26 28 32 34 33 33 32 30 30 29 28 27 26 24 22 19 15 13 11 9 5 3 2 1 2 2 1 2 4 6 7 7
1 2 2 3 1 1 1 2 2 4 5 3 2 4 7 7 2 4 4 5 7 7 8 10 9 8 8 7 7 8 7 5 5 6 6 6 6 5 6 8 9 11 14 17 19 20 21 23 24 25 28 29 28 26 27 28 30 32 33 33 33 32 32 31 31 30 30 30 28 27 25 22 20 18 17 14 11 8 6 3 1 1 2 5 8 9 8
2 1 2 2 1 1 1 2 2 3 3 1 3 6 9 8 3 8 10 9 8 9 9 10 8 7 8 9 9 10 9 7 5 5 5 5 5 3 3 6 9 11 15 18 19 20 21 22 24 25 26 29 30 30 30 31 31 31 32 34 33 32 32 31 30 28 28 27 27 25 24 24 22 21 20 19 17 15 13 10 6 3 2 5 8 8 9
2 1 2 2 2 1 2 3 3 4 3 3 3 5 8 8 4 6 11 10 9 10 10 10 8 6 8 10 10 9 8 8 6 4 4 5 4 3 4 8 11 13 17 19 21 22 22 22 24 23 23 26 29 30 30 31 31 31 32 33 32 32 32 31 30 28 26 25 25 24 23 22 22 21 20 19 17 16 14 12 10 7 6 6 7 7 8
2 2 1 1 0 2 2 2 3 2 1 2 2 2 4 6 3 5 11 12 10 10 10 9 8 8 9 9 7 6 7 6 5 4 6 7 5 4 7 11 14 15 18 21 23 24 24 24 22 21 22 25 28 29 29 29 30 31 32 32 31 31 31 30 29 28 27 26 25 23 22 22 22 21 19 18 17 15 13 12 11 9 8 8 9 10 9
1 3 2 1 1 1 1 2 3 0 2 3 1 1 3 4 2 4 11 14 12 11 11 9 8 7 9 7 2 3 4 3 4 5 8 8 8 6 7 12 15 16 19 22 23 24 25 24 22 21 24 26 29 29 27 27 29 31 31 30 29 28 27 26 26 26 26 26 25 24 23 22 21 19 18 17 16 15 14 13 12 11 11 10 10 10 10
2 3 2 1 1 1 1 4 7 4 2 5 2 2 2 1 3 3 8 14 12 10 11 8 5 5 6 4 2 1 1 0 1 1 4 5 5 5 8 13 16 18 20 21 22 23 24 23 23 24 24 26 29 28 27 28 30 30 29 27 25 24 23 23 23 23 23 23 23 23 22 21 20 18 17 16 15 14 14 13 13 13 12 12 12 11 12
2 3 2 1 0 1 2 4 9 8 3 3 3 1 2 1 4 4 5 10 10 8 6 3 2 2 4 6 6 7 7 6 5 4 5 5 6 6 10 14 18 19 20 21 22 23 24 22 22 24 25 27 28 28 27 29 30 28 26 24 22 21 21 22 22 22 21 21 20 20 19 18 17 16 15 14 14 14 14 13 13 13 13 14 13 13 13
3 3 2 1 1 2 3 5 9 9 4 1 2 2 3 1 5 5 5 7 8 5 3 2 3 2 4 8 8 9 9 8 7 9 11 11 11 12 14 16 18 19 20 21 21 22 22 21 21 22 25 28 28 27 27 28 26 23 21 20 20 20 20 20 20 19 19 18 18 17 16 15 14 14 13 13 13 13 13 13 13 13 13 14 14 14 14
2 2 3 1 1 1 4 8 8 5 1 1 2 2 2 1 5 6 5 5 5 4 3 4 4 5 7 9 8 7 7 7 7 9 13 15 15 16 16 17 17 18 19 20 21 20 20 21 21 23 26 27 26 25 25 24 21 19 18 18 18 19 19 19 18 18 17 16 16 16 15 15 14 14 13 13 13 13 13 13 13 14 14 14 15 15 15
1 2 3 2 1 2 8 10 6 2 2 2 3 2 2 3 5 6 5 4 5 6 6 7 8 7 7 6 6 6 5 5 7 10 13 14 15 15 16 15 15 16 18 19 19 19 19 21 21 22 24 26 25 23 22 19 18 17 17 17 17 17 17 17 16 16 15 15 15 15 16 15 15 14 14 14 14 14 13 14 14 14 15 15 16 17 16
1 2 2 0 2 5 8 6 1 1 1 2 1 1 3 4 4 5 5 4 4 7 10 10 8 6 5 5 6 6 6 6 7 10 13 14 15 16 17 15 13 14 18 20 21 21 21 22 21 20 22 24 24 22 19 17 16 17 16 16 16 16 15 14 14 13 13 14 15 15 15 14 14 14 14 14 13 13 13 13 14 15 15 16 17 18 18
2 2 1 1 2 4 4 3 3 2 3 4 4 5 5 5 4 3 5 6 6 6 10 11 8 5 5 5 6 6 6 6 7 10 12 14 15 16 16 15 13 14 17 20 23 24 23 22 21 20 20 22 22 20 17 16 16 16 16 15 15 14 13 12 12 13 13 13 14 14 14 14 14 15 15 15 14 14 14 14 14 15 15 16 17 17 18
3 4 2 1 1 2 3 4 4 5 6 6 6 8 8 6 5 5 6 7 7 6 7 8 7 5 5 5 5 6 5 5 7 11 13 14 16 17 16 15 13 14 16 19 21 21 21 19 19 19 19 20 20 18 16 16 17 17 17 16 15 14 13 13 13 13 14 14 15 14 15 15 15 15 16 16 16 16 17 18 17 17 16 17 17 18 18
3 2 2 3 3 3 4 5 5 7 8 7 7 8 7 6 7 8 8 8 8 8 8 8 6 5 5 6 5 5 5 5 7 10 12 14 16 16 15 13 12 13 16 18 18 19 18 17 16 17 18 19 18 17 17 18 18 18 18 16 14 14 14 14 15 15 16 17 16 16 17 17 16 15 16 17 17 18 18 19 19 19 19 19 19 20 21
2 1 2 3 4 4 4 4 4 5 7 7 7 7 7 8 9 9 10 10 9 7 7 7 7 6 5 5 5 4 4 5 8 10 12 13 14 14 12 12 12 13 15 17 17 17 16 14 15 16 17 17 17 17 18 18 17 18 18 15 14 14 15 15 15 17 17 17 16 16 17 16 16 16 17 17 17 17 16 17 18 19 19 20 20 20 21
3 2 0 2 4 5 5 4 3 4 5 7 7 7 8 9 9 9 11 11 9 8 7 7 8 8 5 5 6 5 5 6 8 10 12 13 13 12 11 11 12 13 15 15 15 15 14 12 13 14 15 16 16 17 18 18 17 17 16 14 13 14 14 14 15 16 16 16 16 16 16 16 16 17 17 17 17 17 16 15 16 17 19 20 20 20 22
1 2 3 3 3 2 2 1 2 3 4 6 7 7 7 8 7 8 8 8 9 10 10 11 10 7 4 6 9 8 6 8 10 11 13 13 13 12 12 13 14 14 14 13 14 13 12 11 12 13 13 14 15 16 17 18 18 16 15 14 14 15 14 14 15 16 16 16 16 16 16 17 18 18 18 18 17 17 16 15 15 15 17 19 20 20 21
4 6 6 5 4 4 4 5 2 2 3 7 8 7 7 7 7 8 9 8 8 7 8 13 15 10 6 9 12 10 8 10 12 12 12 13 12 12 12 14 15 14 13 12 11 11 10 10 10 10 11 12 13 14 15 17 18 17 15 15 15 14 13 13 15 16 16 16 16 15 15 16 18 20 21 21 19 18 17 17 17 17 17 18 18 18 18
2 2 5 5 3 4 4 4 2 1 1 6 7 6 6 6 8 10 10 9 9 7 5 10 16 16 13 12 13 10 9 9 10 10 10 11 11 11 11 12 13 13 11 10 10 9 9 8 8 8 9 10 11 12 14 15 17 17 16 14 13 12 11 12 14 15 15 14 14 13 14 17 20 21 22 22 23 23 21 19 19 19 19 19 19 18 18
3 3 3 2 3 4 3 3 3 2 2 5 5 4 5 7 10 12 11 10 12 13 9 7 11 15 15 13 12 11 10 8 8 8 8 8 8 8 8 9 10 10 10 9 9 8 8 7 6 6 7 8 9 11 12 14 15 17 15 13 12 11 11 12 15 15 14 14 14 14 17 20 21 21 21 22 24 26 27 25 24 22 21 20 21 21 21
7 7 6 5 6 6 5 4 3 1 4 7 6 4 6 10 13 14 14 13 14 16 16 13 12 12 12 11 11 10 9 8 7 6 6 6 5 5 5 6 7 7 7 6 7 7 6 6 5 5 5 6 7 9 11 13 14 16 15 12 10 9 10 12 14 14 13 13 14 16 18 20 20 20 20 20 21 23 26 27 28 27 25 23 21 22 23
7 8 8 7 5 3 3 3 3 4 6 10 10 7 9 12 15 14 13 13 14 16 17 17 16 14 12 11 11 9 8 8 7 6 6 6 5 4 3 2 1 3 3 4 4 4 4 4 4 3 3 4 5 7 10 11 12 13 12 10 7 7 8 10 11 11 12 13 15 16 17 17 18 18 19 19 20 20 21 22 24 26 26 24 22 21 21
4 4 5 6 5 5 4 5 8 8 8 11 13 12 11 11 13 12 9 9 10 12 14 16 16 14 12 12 11 10 9 9 9 8 8 7 6 5 4 4 3 3 2 1 2 2 3 3 3 1 0 1 3 5 7 9 9 9 10 8 6 6 7 7 8 10 12 13 14 15 15 15 16 16 17 17 18 18 19 18 19 20 22 22 21 20 18
4 3 3 6 7 7 7 7 7 7 7 9 12 13 12 10 8 7 6 8 9 10 11 13 13 12 11 12 11 11 11 11 11 11 10 9 7 6 5 4 5 6 6 4 3 3 2 2 2 1 1 1 1 3 6 8 7 8 8 8 7 6 6 6 8 10 12 13 12 13 14 14 14 14 15 15 16 17 18 17 16 16 17 19 21 21 20
3 1 4 5 6 8 9 8 6 6 6 7 8 9 9 9 7 6 6 8 10 10 10 12 13 11 10 11 11 11 11 11 12 12 10 9 8 7 6 5 5 5 5 5 4 3 3 2 2 2 2 3 2 3 5 7 7 7 8 8 8 6 5 6 9 11 11 12 12 13 13 13 13 13 13 14 15 16 17 16 15 15 16 18 20 21 22
2 4 4 4 5 6 6 6 6 6 6 7 7 6 5 5 6 6 5 6 8 10 11 12 13 12 12 12 12 11 11 11 10 10 9 8 8 8 7 6 5 4 4 3 3 3 3 4 4 3 3 3 3 5 6 6 7 8 8 9 9 8 6 7 9 10 10 11 12 13 13 13 12 12 12 13 14 14 14 15 15 15 17 18 20 21 21
4 6 6 5 5 4 2 2 5 5 4 4 5 6 7 7 7 7 6 7 10 12 13 13 14 15 14 12 11 11 10 9 8 8 8 9 8 8 7 6 5 5 4 4 3 3 5 5 5 4 4 3 4 6 6 7 8 8 9 10 10 9 8 9 9 10 10 10 11 12 12 12 12 12 11 12 12 11 11 12 14 15 17 18 19 20 20
6 4 3 3 3 4 4 2 3 5 5 5 7 9 9 9 9 9 9 10 12 14 15 16 18 17 15 12 11 10 9 8 7 8 9 9 9 8 8 6 6 6 6 6 6 6 6 6 6 6 5 4 5 6 7 7 8 8 9 9 10 10 10 10 10 10 10 9 9 10 11 10 11 11 10 10 11 11 10 10 12 15 16 17 17 18 18
5 4 4 5 6 6 4 3 3 3 4 5 8 10 10 9 9 10 12 12 13 14 17 18 18 16 13 12 11 10 9 8 8 9 9 8 7 7 7 6 7 7 7 7 7 8 7 7 7 8 7 5 5 6 7 7 7 8 8 8 8 10 11 11 10 9 9 8 7 8 8 8 9 9 9 9 10 11 11 11 12 15 16 16 16 17 17
4 3 3 5 7 8 7 4 1 3 4 4 5 8 10 11 11 12 14 15 15 15 16 16 15 14 13 12 11 11 11 10 9 8 7 6 6 6 6 7 7 8 8 8 8 8 8 9 9 8 7 7 7 7 7 6 7 7 6 6 8 10 11 10 8 8 8 7 6 6 7 7 7 7 7 7 8 11 12 12 13 15 16 15 15 15 16
3 5 5 6 8 8 6 4 6 7 6 5 5 6 8 10 11 13 16 17 16 14 13 13 14 14 14 13 12 12 12 12 10 8 7 6 6 6 7 8 8 8 8 9 7 6 7 9 9 8 8 8 8 8 7 6 6 6 5 5 7 8 8 7 7 7 7 6 5 5 5 5 5 6 7 7 7 9 11 13 15 15 14 13 12 12 12
7 7 5 4 6 7 4 4 5 4 2 3 5 5 6 9 12 14 16 16 15 14 14 15 15 14 13 12 11 10 10 10 9 8 8 7 7 7 8 8 8 8 9 8 5 5 6 8 8 8 8 9 8 7 6 5 6 6 4 4 6 6 6 7 8 8 6 5 5 5 5 4 4 6 7 7 7 6 8 10 13 14 12 10 9 9 10
7 8 8 6 6 6 3 1 2 3 2 3 8 10 10 10 12 14 15 15 15 14 15 15 15 14 12 10 10 9 8 8 8 9 9 9 9 9 10 10 10 10 9 7 5 5 6 7 7 7 8 7 7 8 6 5 5 5 4 4 5 5 5 7 8 7 5 5 6 5 4 3 5 7 8 7 5 4 5 8 10 10 9 8 8 9 9
3 4 4 3 3 4 6 7 5 2 4 8 13 13 9 8 10 12 14 14 14 14 15 15 15 13 11 10 10 10 9 8 8 9 9 10 10 11 12 13 13 12 10 8 7 7 7 7 6 5 5 6 8 8 7 6 6 5 5 4 5 5 5 6 7 6 4 4 5 4 3 5 6 8 8 7 4 3 4 6 8 8 8 8 8 8 9
2 2 2 3 2 1 4 5 6 6 7 9 11 10 8 8 10 11 11 11 12 13 14 15 15 14 12 11 11 11 10 9 10 10 10 10 10 11 13 14 12 11 10 11 11 10 8 8 7 6 5 6 8 8 8 7 6 6 6 5 5 5 5 5 6 5 3 3 4 4 5 6 8 9 9 7 4 3 4 6 7 7 7 7 8 8 9
5 5 5 6 5 3 1 2 2 3 5 7 7 9 10 10 10 10 10 10 10 12 14 16 17 15 13 12 12 11 10 10 10 10 11 11 10 10 12 11 8 6 9 12 13 12 10 9 8 8 8 8 8 7 7 7 7 7 8 7 5 5 5 3 5 5 4 3 4 5 6 7 8 9 8 6 4 4 4 5 6 6 5 6 7 8 9
6 6 7 8 8 6 5 4 2 0 0 2 4 6 8 9 10 10 9 9 10 12 15 17 17 15 13 13 12 12 11 11 10 10 11 12 12 11 11 9 6 4 7 9 11 12 11 10 9 9 9 9 8 7 7 7 8 8 9 9 7 5 5 3 2 5 4 3 3 4 5 5 7 8 8 6 5 4 4 4 5 5 5 5 6 7 8
5 6 8 10 9 8 7 7 6 4 3 2 2 2 4 5 7 7 7 7 9 12 14 16 17 16 16 15 14 12 12 11 10 9 10 12 12 12 12 10 7 5 6 8 9 10 11 10 10 10 10 10 9 8 8 8 9 9 11 11 9 6 6 4 1 2 3 3 3 3 3 3 4 6 8 7 5 4 5 5 5 5 4 4 4 5 7
5 6 8 10 11 10 9 9 9 7 6 5 4 3 2 2 3 3 3 4 6 8 11 14 15 17 18 17 16 14 12 11 9 9 10 11 11 13 13 13 10 9 9 9 10 11 11 10 10 10 10 10 8 8 8 9 10 10 12 13 11 8 7 6 4 1 1 2 3 4 3 3 2 3 5 6 5 4 4 5 5 5 4 4 4 5 6
9 7 7 9 11 11 11 11 12 11 10 8 7 5 4 4 4 4 3 3 4 5 8 11 13 15 17 18 17 16 14 11 9 9 9 9 10 10 10 10 11 13 13 12 12 11 11 11 11 12 11 10 9 8 9 9 10 11 14 15 13 10 8 8 6 4 2 1 2 3 4 4 4 3 3 4 4 3 3 4 4 4 3 3 4 5 6
11 9 8 9 10 11 10 11 11 11 10 9 8 9 9 8 6 4 3 4 6 7 7 8 10 11 12 14 16 16 15 13 12 11 11 10 9 8 7 7 8 11 13 14 12 10 9 10 11 12 12 10 9 9 9 8 10 13 16 17 15 12 10 9 8 6 5 4 2 1 2 4 5 4 3 3 2 3 2 2 3 3 3 3 4 4 5
11 11 11 11 11 11 9 7 7 8 9 9 10 12 12 10 7 5 5 6 9 9 8 8 9 9 9 11 14 16 16 15 14 14 13 12 10 9 7 5 6 7 10 12 11 9 8 9 11 12 12 11 10 9 9 8 9 12 16 18 17 14 12 11 10 9 8 6 5 3 2 0 2 4 4 3 3 2 2 1 2 3 3 3 3 3 4
11 12 12 12 11 11 9 7 5 7 9 11 13 14 13 11 9 8 8 8 9 8 7 7 7 8 8 9 12 14 16 15 13 12 12 11 10 9 8 6 5 5 8 10 10 9 8 10 11 12 12 11 10 10 9 7 6 9 14 18 18 15 14 13 12 11 10 9 7 6 5 3 1 1 2 3 3 3 2 2 2 2 2 2 2 3 3
10 11 11 11 11 11 11 9 8 9 11 12 14 14 13 11 11 11 11 10 10 10 9 8 7 7 7 8 10 12 15 16 14 12 10 9 9 9 8 6 4 5 7 9 9 8 8 9 11 11 11 11 11 11 10 8 7 7 11 15 17 17 16 15 14 12 11 10 9 8 7 6 5 3 2 1 0 1 1 0 0 1 2 2 2 2 3
10 10 10 10 10 10 11 10 10 10 11 11 12 12 12 11 11 12 12 11 11 11 11 9 8 8 8 8 8 10 13 15 16 15 13 10 9 8 8 7 5 5 6 8 8 7 7 8 9 9 10 10 11 11 11 10 8 8 10 12 15 17 18 18 16 14 13 12 10 9 9 8 7 6 5 4 4 4 4 3 2 3 2 2 2 2 2
9 9 9 10 10 9 8 8 8 9 9 8 8 9 10 11 12 13 13 12 12 12 11 10 9 9 9 9 9 9 11 13 15 16 15 13 9 8 8 8 7 6 7 8 8 8 8 8 8 9 9 9 11 11 10 9 9 9 10 11 13 15 17 18 18 16 15 14 12 11 10 9 9 8 8 7 6 7 7 6 6 5 4 4 3 3 2
7 7 8 9 9 8 7 6 5 5 5 5 6 7 9 10 11 12 12 11 11 11 11 11 10 9 9 9 9 9 10 12 13 15 15 14 11 9 9 10 9 8 7 7 8 8 9 9 9 10 10 9 10 10 10 9 9 9 10 10 11 12 14 16 17 17 15 14 14 13 12 11 10 10 9 9 9 9 9 9 9 8 7 7 6 5 4
Wind_Direction
31 14 353 30 72 73 42 29 20 9 23 67 87 117 190 136 141 220 213 154 143 143 134 136 134 117 107 107 108 110 112 111 107 100 94 84 74 71 65 57 58 61 57 54 54 53 53 56 60 69 78 83 89 91 93 104 116 122 126 129 130 129 130 134 140 146 149 153 160 163 167 170 174 179 176 173 184 202 215 223 227 233 244 250 248 242 239
38 12 356 38 72 73 43 27 17 12 27 81 98 114 152 130 141 193 136 111 76 63 107 119 111 104 104 102 102 103 104 108 106 99 94 89 81 76 70 60 55 58 56 53 54 52 51 53 55 62 69 75 80 82 87 94 100 107 111 109 107 107 109 115 127 135 134 135 141 143 143 145 152 165 165 165 180 194 217 230 224 231 250 252 246 246 247
33 7 8 45 67 80 65 28 12 10 15 50 72 74 111 103 90 90 99 101 77 26 66 94 101 105 104 100 98 92 90 103 109 103 97 94 90 81 70 60 53 57 59 53 52 53 52 53 56 60 65 70 73 73 77 82 88 94 96 94 92 92 94 99 106 111 110 110 115 118 119 124 136 160 175 175 175 176 197 278 213 222 262 252 241 247 255
11 349 15 40 33 53 57 25 3 358 355 3 18 6 341 73 122 115 102 113 126 45 78 96 103 108 104 98 88 79 75 82 101 105 98 89 88 87 79 67 55 58 60 52 50 53 55 58 60 60 64 69 69 69 72 76 82 87 88 86 84 82 83 88 91 93 94 93 90 87 90 102 112 126 152 175 186 190 205 294 38 56 17 314 266 257 256
31 331 9 30 11 22 23 352 347 335 310 304 326 343 352 347 138 140 147 160 131 95 95 97 94 95 95 86 64 56 57 55 76 93 94 83 77 84 89 82 70 69 68 62 58 57 59 64 67 68 70 71 68 68 72 75 78 81 81 80 80 78 77 80 81 83 85 85 81 79 82 88 88 84 86 98 124 155 202 302 336 35 37 359 330 302 277
128 286 27 58 66 173 214 286 320 298 285 312 24 40 16 355 14 117 103 102 102 96 96 97 95 92 85 67 44 38 33 33 54 68 76 80 69 62 79 85 81 79 77 73 69 65 64 68 73 76 76 75 73 71 71 72 73 74 74 73 72 71 70 72 73 75 77 77 75 75 77 80 81 77 74 75 78 74 63 40 348 268 273 306 315 312 304
135 242 77 101 184 197 244 273 307 312 301 56 86 64 32 9 35 99 89 85 95 101 99 98 97 93 85 74 55 43 30 22 41 49 42 58 60 31 47 75 75 77 79 78 73 68 67 70 72 74 75 75 75 72 69 69 68 68 69 68 66 64 64 64 65 67 69 70 69 68 69 71 71 68 64 64 65 63 62 65 62 51 359 321 313 308 307
126 88 70 141 202 285 312 309 338 356 7 17 26 40 27 3 360 93 95 91 92 97 98 98 99 97 89 77 59 46 33 13 14 34 22 26 42 33 58 78 80 81 82 80 75 70 68 69 69 70 72 72 72 70 67 67 66 65 65 63 61 60 59 58 58 59 61 63 62 60 61 60 58 55 52 50 48 47 52 58 54 48 40 14 348 334 327
134 113 81 93 338 338 348 356 3 37 40 337 345 19 360 352 5 101 109 107 103 103 101 103 112 107 85 72 50 38 42 12 353 29 33 16 17 46 75 84 87 87 86 83 80 77 72 68 67 70 72 72 70 68 65 64 64 63 62 61 59 57 56 54 53 53 53 54 54 53 53 51 48 44 40 36 33 29 29 32 29 22 17 8 359 349 342
104 106 102 83 26 319 301 305 312 20 188 250 232 98 337 357 52 121 125 123 125 126 124 136 149 121 83 75 37 4 47 31 353 32 48 35 23 31 61 80 86 88 88 87 86 85 81 75 71 71 73 73 71 68 64 63 64 63 60 58 55 54 53 51 49 47 45 45 45 45 45 44 41 37 32 28 22 17 13 11 7 1 353 345 344 343 339
68 97 110 117 158 240 254 295 306 313 225 224 183 83 330 41 120 155 136 131 140 144 141 154 168 131 105 121 187 264 65 118 299 12 82 81 71 62 68 82 91 93 91 89 86 84 83 81 77 75 74 73 71 68 67 67 67 65 63 59 55 53 52 49 46 43 41 40 39 39 39 37 35 32 28 23 15 9 5 0 355 351 343 334 332 334 333
54 82 91 83 111 262 298 313 311 311 271 193 147 108 295 147 140 172 152 140 147 147 134 119 72 106 136 146 162 182 186 186 192 176 143 130 129 106 86 89 96 95 89 86 83 82 82 81 77 76 77 76 73 70 69 69 67 65 65 62 58 53 48 44 40 37 35 33 32 34 34 32 30 28 25 19 12 6 2 357 351 345 339 335 331 330 330
41 68 94 30 298 266 308 322 310 307 308 135 137 211 258 178 140 158 158 148 144 131 104 69 34 56 113 119 136 161 169 166 161 143 122 111 106 100 97 98 97 92 85 82 82 82 82 81 79 79 80 79 75 72 69 67 64 61 57 53 48 45 41 40 39 37 36 33 31 31 30 26 24 23 21 18 13 7 2 357 353 348 342 337 332 327 326
31 81 101 26 280 259 337 327 307 305 347 154 219 247 254 130 130 138 144 147 134 108 87 88 79 80 98 110 124 142 146 145 140 122 107 97 90 89 94 97 93 87 82 81 79 77 78 83 89 89 86 82 78 74 71 68 63 55 48 41 37 35 33 34 35 34 32 31 29 27 23 19 17 16 14 12 9 4 360 354 351 348 344 340 334 327 321
30 60 61 44 220 306 339 332 321 356 57 200 235 296 30 74 101 111 113 119 123 117 106 97 93 89 90 97 104 106 108 110 102 94 89 86 82 79 82 87 88 84 80 78 75 74 79 89 95 93 89 87 83 78 75 71 61 52 44 39 35 33 32 32 31 29 27 23 20 17 13 11 10 8 6 4 2 0 356 352 348 344 340 337 334 329 323
52 72 59 83 246 302 329 344 26 52 337 271 251 50 57 59 73 95 94 79 97 120 119 110 102 97 90 90 94 93 89 84 82 80 79 78 76 72 71 75 78 78 80 82 80 82 88 94 94 91 88 87 83 79 76 67 54 46 41 37 36 37 39 39 37 33 29 23 20 18 16 15 15 13 10 8 5 2 357 352 347 341 337 334 331 329 327
75 105 151 210 265 300 329 18 58 59 43 36 55 81 81 60 46 77 95 86 76 95 112 114 112 110 105 100 97 96 95 92 90 86 79 75 73 67 63 65 68 73 82 86 86 86 89 89 87 83 80 79 79 78 71 57 46 39 34 32 35 40 44 45 42 36 31 29 28 27 25 22 18 14 11 7 5 2 357 351 345 339 335 332 328 325 324
68 57 28 359 349 343 15 39 44 56 62 57 63 74 74 64 57 62 81 92 85 81 96 105 106 106 105 99 92 92 96 93 92 91 82 70 67 63 58 58 67 79 85 85 83 83 81 78 75 71 66 66 70 68 57 45 37 30 27 30 37 44 46 42 37 31 26 24 23 20 17 14 10 7 4 1 359 355 351 347 343 337 332 330 328 325 322
77 46 331 344 9 5 24 50 61 62 64 63 69 76 78 74 73 69 70 77 77 72 75 83 83 83 92 96 87 78 80 80 78 82 78 69 65 64 60 60 73 87 90 88 85 83 79 74 70 66 62 59 58 52 42 35 28 23 23 30 38 41 38 32 27 22 18 14 12 9 7 5 3 360 357 353 350 347 345 343 339 335 331 328 326 324 322
74 152 259 346 21 12 3 38 73 76 76 74 71 78 85 76 69 65 62 64 68 66 65 72 76 67 66 82 87 73 63 67 69 71 74 72 69 67 66 69 79 90 96 95 91 89 88 82 73 67 63 57 50 43 37 32 26 24 29 35 39 36 31 26 21 17 13 10 8 5 1 358 356 351 347 343 340 338 338 337 333 330 326 322 321 320 319
57 60 21 29 44 26 2 17 60 68 82 90 83 80 82 79 76 70 60 58 69 79 79 83 84 76 60 67 82 78 59 52 55 59 67 71 71 71 73 75 81 93 100 98 95 95 95 88 77 69 64 56 47 41 37 31 27 28 31 34 34 30 23 19 15 12 10 8 5 1 355 352 351 349 345 340 335 330 329 327 324 323 319 315 314 314 312
115 229 202 167 114 87 293 262 105 88 95 100 95 91 92 92 97 99 86 74 76 86 99 106 103 96 90 85 81 74 60 54 53 54 63 72 76 80 85 86 87 94 98 94 93 98 99 91 82 73 64 54 44 38 34 29 27 28 26 22 20 16 11 10 9 6 4 2 358 355 353 353 352 351 351 352 345 337 333 329 325 322 317 314 313 312 308
221 216 194 178 139 150 220 234 202 167 125 108 104 106 109 110 116 117 113 105 92 84 100 113 114 114 112 97 87 76 66 67 67 66 70 78 83 87 90 90 88 88 88 85 87 97 102 95 85 74 62 52 42 35 29 24 22 21 15 9 5 2 2 5 5 1 357 353 352 353 356 356 350 345 345 348 350 348 345 340 335 330 322 317 316 313 307
203 179 178 186 153 148 196 210 196 238 102 111 117 120 120 124 129 125 121 124 125 117 101 109 117 120 118 109 102 96 87 83 83 83 86 91 94 94 95 93 88 84 80 77 83 100 109 103 90 74 60 50 41 33 25 19 15 12 5 358 354 354 357 2 0 353 349 349 351 351 349 347 344 341 340 340 342 344 344 341 337 333 329 326 324 319 312
104 97 136 152 111 103 109 106 92 62 98 116 121 129 134 134 131 127 124 126 130 129 125 125 126 125 123 119 117 114 111 106 102 103 104 101 98 97 95 91 88 85 80 77 84 98 108 106 94 73 56 47 40 31 22 14 8 3 357 351 348 350 357 358 352 346 346 350 349 344 340 340 341 342 340 336 334 334 335 336 336 335 334 334 331 327 323
113 109 96 76 78 96 103 92 75 117 151 136 122 130 148 145 141 137 136 136 136 136 139 145 146 140 136 136 136 133 132 133 135 136 129 121 114 104 92 81 79 80 80 81 85 85 87 95 94 77 57 45 35 26 16 8 3 1 356 350 345 349 355 350 343 342 346 346 341 337 337 339 340 339 337 334 330 327 327 329 330 331 332 334 335 334 331
126 126 106 86 83 112 149 160 164 174 160 142 134 142 153 148 142 137 135 140 146 149 151 152 154 156 157 157 155 154 154 157 165 173 168 164 166 158 138 119 79 66 63 67 72 63 60 74 82 71 48 29 25 20 8 358 357 1 359 351 343 346 346 340 337 341 341 336 334 336 338 340 340 337 334 333 331 327 322 320 319 321 325 332 338 339 337
145 147 119 124 157 186 191 164 150 151 155 151 148 150 151 143 135 132 137 149 158 162 163 162 162 166 172 172 168 168 172 179 189 197 198 199 204 197 191 210 242 264 292 346 23 12 12 34 45 43 4 347 6 7 354 344 348 359 1 353 342 338 337 335 337 341 339 336 339 341 341 339 337 334 335 339 340 336 332 326 320 318 324 333 339 342 344
182 180 143 149 158 149 129 124 136 152 165 163 157 154 151 143 138 145 164 170 166 166 171 175 177 183 186 184 182 182 185 195 209 219 221 221 216 209 216 242 256 257 258 262 279 303 317 340 348 318 221 230 296 332 331 328 335 350 356 352 342 335 333 334 337 341 345 346 345 342 341 341 338 338 347 358 359 354 348 343 338 334 338 343 346 346 348
247 188 131 142 140 130 132 147 166 178 177 169 166 169 166 159 160 171 181 178 173 175 182 187 191 198 201 198 198 202 206 215 226 229 230 231 223 218 232 251 255 255 249 239 244 265 273 279 296 275 208 205 245 292 309 314 321 336 346 345 340 332 321 324 334 341 347 348 345 343 344 346 346 351 1 9 9 5 3 0 357 355 354 353 352 350 348
329 17 66 97 104 118 147 174 183 186 185 176 175 182 175 166 174 186 185 179 182 188 192 194 199 207 211 209 212 220 226 231 232 227 225 227 224 224 236 244 249 264 271 248 240 256 261 264 268 244 203 204 248 280 296 302 308 322 333 335 334 328 313 310 321 331 339 345 347 347 349 352 353 358 7 9 6 7 11 9 5 2 359 357 354 351 347
75 41 50 62 60 59 75 189 193 198 201 175 173 188 191 188 194 196 184 181 190 195 196 201 208 213 214 214 218 222 222 222 222 224 230 233 230 230 239 248 257 278 296 301 292 273 262 262 250 222 203 217 253 273 286 290 296 311 323 325 327 326 315 305 309 318 328 341 349 350 352 355 356 359 6 7 2 3 9 8 2 359 358 356 352 351 349
110 91 89 101 82 50 22 340 228 205 196 191 205 216 211 201 198 194 186 187 191 192 197 208 215 216 215 213 213 211 209 211 220 234 244 247 242 240 247 259 273 286 296 302 294 276 264 255 234 216 214 234 256 266 276 282 291 306 315 317 319 322 316 309 307 310 317 330 345 349 352 354 356 1 9 8 2 1 4 2 356 355 358 359 356 355 356
174 187 190 180 157 126 89 14 324 278 232 219 227 229 222 212 205 195 188 186 188 192 203 212 215 214 211 209 210 210 207 211 227 241 248 249 246 244 251 264 276 284 288 288 283 272 259 243 227 222 229 245 261 268 270 276 290 304 310 312 314 316 314 311 305 302 306 318 335 346 348 350 358 8 13 9 7 9 8 4 360 358 1 3 4 6 9
202 180 167 174 160 137 127 134 219 259 241 218 220 222 216 211 204 191 186 187 192 199 207 212 210 207 205 206 213 220 222 229 243 253 252 249 245 242 249 261 271 281 286 286 280 268 248 229 224 228 236 250 271 276 268 268 285 296 302 311 315 315 316 313 304 297 302 313 324 336 345 352 4 16 18 14 16 20 22 21 16 9 6 6 9 15 21
111 118 123 144 135 117 119 172 213 228 228 217 213 212 210 209 203 193 191 195 199 203 205 202 198 198 202 209 220 231 237 245 254 256 252 249 248 247 253 259 264 276 288 290 281 257 233 224 226 235 247 265 279 272 253 254 276 284 291 315 324 322 322 320 311 303 303 308 317 330 342 351 8 23 26 22 22 28 33 32 23 14 9 10 14 20 25
70 89 92 97 109 116 139 208 229 235 273 317 295 263 233 219 214 205 199 199 202 202 199 194 191 194 203 216 231 244 252 255 255 253 252 253 254 256 259 260 260 265 274 278 265 230 217 218 225 240 261 276 272 251 234 244 266 268 279 317 328 324 319 320 319 313 308 313 325 328 328 337 4 24 28 24 23 35 44 37 24 15 13 16 23 30 33
72 85 86 81 94 110 105 14 267 224 218 276 277 268 253 233 220 209 201 201 204 203 199 197 198 202 207 218 233 248 255 255 252 249 249 251 255 259 261 262 263 262 262 256 235 210 209 216 227 251 271 266 236 219 227 254 262 256 269 310 322 315 312 324 329 326 322 332 339 337 339 1 18 24 24 17 17 44 58 47 33 24 21 26 36 44 49
93 96 103 111 111 89 58 35 16 331 270 254 251 251 246 227 210 199 196 200 207 208 205 203 203 205 209 221 237 248 254 253 250 250 250 251 254 259 265 270 272 268 261 245 222 211 213 220 230 251 260 232 215 221 247 266 259 248 252 282 304 303 307 330 345 344 341 348 351 355 22 38 36 33 28 21 25 69 73 58 49 40 33 38 50 58 64
240 235 246 251 244 60 42 36 36 14 326 279 246 223 203 192 189 190 197 207 214 215 211 207 205 206 213 227 241 253 261 260 256 257 259 257 256 261 270 277 275 264 248 232 218 211 215 221 225 230 232 228 234 247 258 258 253 245 239 253 284 292 296 327 357 7 17 27 23 24 35 37 35 34 29 22 35 75 76 64 61 54 42 44 56 65 73
271 266 259 254 250 252 289 347 35 16 324 285 240 203 188 185 185 193 205 214 217 217 215 212 211 214 223 235 246 257 269 273 270 265 260 257 256 260 267 276 280 263 243 232 220 214 217 223 226 229 234 244 256 257 245 241 248 243 233 237 262 278 280 314 9 29 43 49 41 36 35 31 25 24 25 25 39 65 70 70 71 62 48 47 57 66 79
279 278 271 266 263 258 248 244 234 134 328 277 239 217 212 210 210 214 221 221 219 220 220 219 220 224 233 243 251 259 268 274 275 269 260 258 257 257 262 273 287 276 247 232 221 218 226 234 237 235 237 250 262 255 236 236 250 246 232 230 243 259 262 274 15 41 46 53 52 42 36 31 22 18 20 27 39 54 66 77 81 74 61 54 60 71 86
273 272 272 273 274 268 249 236 226 203 175 170 185 202 215 224 229 234 236 227 219 221 224 226 228 232 238 244 252 260 263 263 263 263 263 263 261 257 258 266 274 263 238 227 224 229 239 246 243 237 239 250 258 250 236 241 253 249 232 225 229 241 249 246 248 49 47 53 58 42 37 46 40 21 16 20 34 56 76 87 90 84 76 71 72 79 89
276 265 266 272 275 272 258 241 230 223 220 220 212 192 187 225 245 252 251 236 224 227 232 235 236 237 239 242 246 250 251 248 245 248 255 261 264 262 260 258 251 238 228 230 237 246 253 253 244 235 236 244 250 244 239 244 249 241 228 222 223 230 237 236 227 174 79 64 61 54 50 53 42 17 10 14 25 48 76 89 91 88 87 92 98 96 96
285 276 271 277 280 274 261 247 241 239 238 237 236 239 251 259 252 245 251 265 259 248 246 247 246 244 243 245 245 245 245 245 246 247 249 256 267 278 283 273 255 241 233 234 241 251 258 254 239 229 230 241 249 246 242 245 247 238 225 219 219 223 228 230 227 214 191 147 84 70 56 37 22 16 14 13 10 12 40 74 86 86 85 98 111 114 111
296 293 288 286 287 284 275 264 258 255 253 252 257 263 266 265 257 243 252 283 291 282 266 257 254 252 251 249 245 242 241 246 251 254 254 257 266 283 300 300 276 253 242 239 243 251 254 245 232 226 234 249 253 244 240 248 251 240 226 218 217 220 223 222 221 219 214 209 196 141 65 34 26 29 35 32 12 357 11 65 95 98 91 96 107 113 114
306 306 302 297 294 295 297 291 275 258 249 250 259 264 266 266 263 251 248 265 277 279 270 261 260 263 263 254 246 241 242 245 251 255 255 256 262 271 278 285 286 268 247 240 243 251 250 238 231 235 247 253 245 231 231 245 253 242 227 219 217 220 223 221 220 220 220 221 223 219 214 6 24 30 37 45 46 26 14 63 108 117 119 115 111 108 108
306 306 308 306 301 298 300 297 275 252 245 248 256 264 269 272 273 271 266 263 263 263 260 257 261 267 268 260 251 247 245 245 251 261 262 259 259 262 263 266 282 275 251 244 248 253 247 239 241 248 251 243 227 217 220 232 242 237 227 221 220 223 225 224 221 219 219 222 227 231 230 231 244 329 14 35 52 59 53 53 84 111 117 118 121 124 119
311 309 310 307 298 294 293 285 267 257 258 258 259 264 270 274 276 278 279 273 263 258 256 256 258 263 268 268 262 254 247 242 245 259 272 275 272 267 259 255 264 270 262 258 258 254 246 247 252 250 238 223 213 211 216 223 232 237 232 229 230 232 232 228 225 224 223 224 228 232 233 236 237 233 236 272 355 138 140 101 118 157 144 136 151 164 154
322 319 314 308 301 298 292 281 270 270 276 276 273 272 272 270 269 272 276 274 266 260 258 258 258 260 264 269 269 263 253 245 243 247 257 269 277 270 254 242 244 264 273 268 258 249 250 254 246 230 216 211 210 212 218 227 240 251 250 244 241 240 237 232 228 227 227 228 230 234 236 239 240 232 227 236 245 230 215 214 227 225 208 196 201 203 193
325 322 319 317 314 309 300 287 281 284 287 285 280 277 272 265 263 267 272 272 267 262 260 261 263 263 262 264 269 268 260 251 245 244 247 255 264 259 244 237 240 253 265 261 248 241 246 245 225 210 210 214 213 215 224 240 256 267 266 255 245 242 239 234 230 229 230 231 234 237 238 240 241 238 234 237 243 239 229 226 229 233 230 226 227 234 228
325 323 321 316 311 305 299 290 281 277 276 274 272 268 262 255 257 265 269 267 263 259 258 259 262 263 261 261 266 268 264 257 252 247 245 246 245 236 230 232 239 247 255 253 242 236 237 231 218 212 216 218 215 219 236 255 266 272 270 257 244 241 240 237 234 234 235 237 239 240 241 241 243 243 242 242 243 241 235 231 231 233 236 236 236 236 235